www.pogodaiklimat.ru

Погода и климат >> Архив погоды >> Китай >> Mandal


ПОГОДА в Mandal

  • Прогноз погоды в Mandal
  • Монитор погоды в Mandal
  • Климат города

АРХИВ ПОГОДЫ в Mandal

Время (UTC), дата Ветер
(напр.,м/с)
 
Видим.   Явления Облачность Т
(С)
Тd
(С)
f
(%)
Тe
(С)
Тes
(С)
Комфортность P
(гПа)
Po
(гПа)
Тmin
(С)
Tmax
(С)
R
(мм)
R24
(мм)
S
(см)
03 16.09 З 4 30 км ясно +15.3 -3.1 28 +15 +21 1022.9 1023.0
06 16.09 З 5 30 км ясно +18.2 -9.7 14 +18 +24 1021.0 882.7 +2.7
09 16.09 З 5 30 км ясно +18.8 -9.2 14 +18 +20 1020.3 1020.0
12 16.09 З 2 30 км ясно +12.8 -3.1 33 +12 +12 1020.8 1066.5
15 16.09 З 2 30 км н/о +9.8 +0.7 53 +9 +9 1021.2 1021.0
18 16.09 З 1 30 км ?/? +8.5 +0.7 58 +8 +8 1020.5 883.0 +19.3
21 16.09 З 1 30 км н/о +7.2 +0.9 64 +7 +7 1019.6 1020.0
00 17.09 Ю 1 30 км 9/9 1000 м
[]
+10.6 +0.9 51 +11 +11 1020.0 881.8
03 17.09 З 3 30 км 10/10 1000 м
[]
+15.8 -1.7 30 +16 +16 1019.8 835.4
06 17.09 З 4 30 км 10/10 1000 м
[]
+18.0 -3.4 23 +18 +18 1018.2 881.0 +7.0
09 17.09 З 4 30 км 9/9 1000 м
[]
+17.6 -2.1 26 +17 +17 1018.1 1018.0
12 17.09 З 2 30 км ясно +12.6 +1.9 48 +12 +12 1019.0 880.9
15 17.09 З 1 30 км н/о +10.1 +2.9 61 +10 +10 1018.7 835.3
18 17.09 З 2 30 км ?/? +9.1 +3.3 67 +8 +8 1018.3 881.2 +18.8
21 17.09 З 2 28 км н/о +8.8 +3.4 69 +7 +7 1017.9 1018.0
00 18.09 З 3 30 км ясно +11.9 +4.9 62 +10 +12 1018.8 1063.3
03 18.09 З 3 30 км 3/3
[]
+19.3 +3.9 36 +20 +26 1017.4 1017.0
06 18.09 З 3 30 км 3/3
[]
+21.5 +1.2 26 +21 +27 комфорт 1015.2 879.3 +8.1
09 18.09 З 5 30 км 1/1
[]
+22.1 0.0 23 +21 +22 комфорт 1013.6 833.0
12 18.09 З 2 30 км ясно +16.4 +4.1 44 +17 +17 1014.4 878.1
15 18.09 З 3 30 км ?/? +14.9 +5.7 54 +14 +14 1013.9 1014.0
18 18.09 З 2 30 км ?/? +13.9 +4.8 54 +14 +14 1013.3 1058.7 +22.9
21 18.09 З 2 30 км н/о +12.7 +4.9 59 +12 +12 1012.6 1013.0
00 19.09 Ю 1 15 км 4/4 1000 м
[]
+12.8 +5.5 61 +13 +14 1014.2 878.1
03 19.09 З 4 30 км 3/3
[]
+21.4 +4.5 33 +22 +26 комфорт 1012.1 832.3
06 19.09 З 4 30 км 4/4 600 м
[]
+23.6 -2.1 18 +22 +26 комфорт 1009.4 875.7 +12.1
09 19.09 ЮЗ 5 30 км 4/4 600 м
[]
+22.9 +0.7 23 +22 +23 комфорт 1008.1 1008.0
12 19.09 ЮЗ 4 30 км ясно +18.0 +4.9 42 +18 +18 1009.1 874.0
15 19.09 СЗ 7 30 км н/о +14.5 +1.4 41 +13 +13 1009.4 1009.0
18 19.09 СЗ 6 30 км ?/? +10.3 -1.7 43 +7 +7 1011.1 876.4 +24.2 0.4
21 19.09 СЗ 5 30 км н/о +6.3 -1.6 57 +3 +3 1013.9 1014.0
00 20.09 З 9 30 км ясно +5.9 -3.5 51 +1 +1 1016.6 879.0 0.4
03 20.09 З 7 30 км 3/3 1000 м
[]
+9.9 -7.8 28 +7 +9 1016.8 1017.0
06 20.09 СЗ 10 30 км 3/3 1000 м
[]
+11.8 -8.7 23 +9 +9 1016.3 878.3 +4.4
09 20.09 СЗ 7 30 км 3/3 1000 м
[]
+11.7 -11.2 19 +9 +10 1016.6 1017.0
12 20.09 СЗ 4 30 км 1/1
[]
+8.9 -11.1 23 +7 +7 1017.7 877.9
15 20.09 СЗ 5 30 км н/о +7.8 -11.0 25 +5 +5 1017.2 831.2
18 20.09 СЗ 6 30 км ?/? +5.6 -11.0 29 +2 +2 1016.7 877.6 +12.5
21 20.09 З 8 30 км ?/? +3.8 -8.2 41 -2 -2 1016.9 1017.0
00 21.09 СЗ 9 30 км 8/8 1000 м
[]
+3.5 -6.5 48 -3 -3 1019.7 879.1
03 21.09 СЗ 10 30 км 3/3 600 м
[]
+7.7 -5.7 38 +3 +3 1020.1 833.0
06 21.09 СЗ 12 30 км 1/1 600 м
[]
+11.4 -6.9 27 +8 +8 1019.1 879.6 +3.0
09 21.09 СЗ 11
{18}
30 км ясно +11.6 -9.4 22 +8 +8 1019.4 1019.0
12 21.09 СЗ 7 30 км 1/1 600 м
[]
+8.5 -10.4 25 +5 +5 1021.7 880.7
15 21.09 СЗ 4 30 км н/о +5.7 -9.7 32 +3 +3 1022.0 834.4
18 21.09 СЗ 3 30 км ?/? +3.3 -8.7 41 0 0 1021.7 881.3 +12.1
21 21.09 СЗ 5 30 км ?/? +1.8 -7.0 52 -3 -3 1022.1 1022.0
00 22.09 СЗ 5 30 км ясно +3.0 -6.4 50 -2 -1 1024.3 882.8
03 22.09 СЗ 5 30 км ясно +8.1 -7.2 33 +5 +10 1024.3 835.6
06 22.09 СЗ 7 30 км ясно +11.7 -8.2 24 +9 +12 1022.2 881.8 +1.1
09 22.09 СЗ 7 30 км ясно +12.0 -8.5 23 +10 +10 1021.9 1022.0
12 22.09 С 3 30 км ясно +8.4 -8.6 29 +7 +7 1023.7 882.3
15 22.09 С 2 30 км ?/? +5.0 -6.8 42 +3 +3 1025.0 1025.0
18 22.09 С 3 30 км н/о +4.8 -7.0 42 +2 +2 1024.6 884.2 +12.7
21 22.09 С 1 30 км ?/? +3.1 -6.1 51 +2 +2 1025.5 1026.0

 

Местоположение метеостанции Mandal (Китай): широта 42.53 долгота 110.13 высота над уровнем моря 1223 м.

В архиве по умолчанию представлена погода в Mandal за последнюю неделю. Архивные данные за месяц целиком и за предыдущие месяцы, начиная с января 2011 года, Вы можете получить, выбрав интересующий диапазон дат из раскрывающегося списка и нажав кнопку "Ввод!".


*Определитесь, кто Вы:
робот инопланетянин человек

Внимание! Время в таблицах - всемирное. Для получения местного времени необходимо прибавить поправку, которая в Mandal равна 8 ч.

Смотрите также архив погоды в соседних городах и на ближайших метеорологических станциях:

Погода в Bailing-Miao Zhen (Китай) (96 км)
Погода в Hatanbulag (Монголия) (104 км)
Погода в Hai Liu Zhen (Китай) (171 км)
Погода в Zamyn-Uud (Монголия) (196 км)
Погода в Erenhot (Китай) (196 км)
Погода в Zhurihe Zhen (Китай) (228 км)
Погода в Hohhot (Китай) (230 км)
Погода в Hanbogd (Монголия) (253 км)
Погода в Sainshand (Монголия) (264 км)
Погода в Jining (Китай) (295 км)

Пояснения к столбцам:

Ветер - указаны скорость ветра в м/с - средняя за 10 мин, порывы в срок и между сроками (в фигурных скобках) и направление, откуда дует ветер: С - северный, СВ - северо-восточный, В - восточный, ЮВ - юго-восточный, Ю - южный, ЮЗ - юго-западный, З - западный, СЗ - северо-западный.
Видимость - горизонтальная дальность видимости в метрах или километрах. При видимости от 1 до 10 км при отсутствии осадков обычно наблюдается дымка, при ухудшении видимости до 1 км и менее - туман. В сухую погоду видимость может ухудшаться дымом, пылью или мглою.
Явления - указаны атмосферные явления, наблюдавшиеся в срок или в последний час перед сроком; фигурными скобками обозначены явления, наблюдавшиеся между сроками (за 1-3 часа до срока); квадратными скобками обозначены град или гололедные отложения с указанием их диаметра в мм.
Облачность - указаны через наклонную черту общая и нижняя облачность в баллах и высота нижней границы облаков в метрах; квадратными скобками обозначены формы облаков: Ci - перистые, Cs - перисто-слоистые, Cc - перисто-кучевые, Ac - высококучевые, As - высокослоистые, Sc - слоисто-кучевые, Ns - слоисто-дождевые, Cu - кучевые, Cb - кучево-дождевые. Подробнее классификацию облаков см. в Атласе облаков (PDF).
T - Температура воздуха - температура, измеренная на высоте 2 м над землей.
Td - Температура точки росы - температура, при понижении до которой содержащийся в воздухе водяной пар достигнет насыщения.
f - Относительная влажность воздуха - влажноcть воздуха, измеренная на высоте 2 м над землей.
Te - Эффективная температура - температура, которую ощущает одетый по сезону человек в тени. Характеристика душности погоды. При расчете учитывается влияние влажности воздуха и скорости ветра на теплоощущения человека.
Tes - Эффективная температура на солнце - температура, которую ощущает человек, с поправкой на солнечный нагрев. Характеристика знойности погоды. Зависит от высоты солнца над горизонтом, облачности и скорости ветра. Ночью, в пасмурную погоду, а также при ветре 12 м/с и более поправка равна нулю.
P - Атмосферное давление - приведенное к уровню моря атмосферное давление.
Po - Атмосферное давление - измеренное на уровне метеостанции атмосферное давление.
Tmin - Минимальная температура - минимум температуры воздуха на высоте 2 м над землей.
Tmax - Максимальная температура - максимум температуры воздуха на высоте 2 м над землей.
R - Количество осадков - Количество выпавших осадков за период времени, мм. При наведении курсора мыши на число - период времени, за который выпало указанное количество осадков.
R24 - Количество осадков - Количество выпавших осадков за 24 часа, мм.
S - Снежный покров - Высота снежного покрова, см. При наведении курсора мыши на число - состояние снежного покрова и степень покрытия местности в баллах.